Weather History for Presque Isle, ME

Change the Weather History Date:

Tuesday, November 13, 2012

  Actual Average Record
Temperature  
Mean Temperature 44 °F -  
Max Temperature 60 °F 39 °F 60 °F (1982)
Min Temperature 28 °F 25 °F 0 °F (1933)
Degree Days  
Heating Degree Days 21    
Moisture  
Dew Point 39 °F    
Average Humidity 79    
Maximum Humidity 87    
Minimum Humidity 72    
Precipitation  
Precipitation 0.14 in - - ()
Sea Level Pressure  
Sea Level Pressure 30.09 in    
Wind  
Wind Speed 14 mph (SW)    
Max Wind Speed 26 mph    
Max Gust Speed 36 mph    
Visibility 9 miles    
Events      
Averages and records for this station are not official NWS values.
T = Trace of Precipitation, MM = Missing Value Source: NWS Daily Summary

Daily Weather History Graph

Daily Weather History Graph

Search for Another Location

Airport:

Trip Planner

Search our weather history database for the weather conditions in past years. The results will help you decide how hot, cold, wet, or windy it might be!

Date:

Astronomy

Nov. 13, 2012 Rise Set
Actual Time 6:32 AM EST 4:00 PM EST
Civil Twilight 5:59 AM EST 4:32 PM EST
Nautical Twilight 5:22 AM EST 5:09 PM EST
Astronomical Twilight 4:47 AM EST 5:45 PM EST
Moon 6:06 AM EST (11/13) 3:48 PM EST (11/13)
Length of Visible Light 10h 33m
Length of Day
9h 27m
Waning Crescent, 0% of the Moon is Illuminated
Nov 13
Waning Crescent
Nov 13
New
Nov 20
First Quarter
Nov 28
Full
Dec 6
Last Quarter

Hourly Weather History & Observations

Time (EST) Temp. Windchill Dew Point Humidity Pressure Visibility Wind Dir Wind Speed Gust Speed Precip Events Conditions
12:15 AM 57.2 °F - 48.2 °F 72% 30.06 in 10.0 mi SSW 18.4 mph 26.5 mph N/A   Overcast
12:35 AM 57.2 °F - 48.2 °F 72% 30.05 in 10.0 mi SSW 19.6 mph 29.9 mph N/A   Overcast
12:55 AM 57.2 °F - 48.2 °F 72% 30.04 in 10.0 mi South 19.6 mph 31.1 mph N/A   Overcast
1:15 AM 57.2 °F - 48.2 °F 72% 30.04 in 10.0 mi South 18.4 mph 28.8 mph N/A   Overcast
1:35 AM 57.2 °F - 48.2 °F 72% 30.04 in 10.0 mi South 20.7 mph 32.2 mph N/A   Overcast
1:55 AM 57.2 °F - 48.2 °F 72% 30.03 in 10.0 mi South 19.6 mph 33.4 mph N/A   Overcast
2:15 AM 57.2 °F - 48.2 °F 72% 30.02 in 10.0 mi South 19.6 mph 29.9 mph N/A   Overcast
2:35 AM 57.2 °F - 48.2 °F 72% 30.02 in 10.0 mi South 19.6 mph 28.8 mph N/A   Overcast
2:55 AM 57.2 °F - 48.2 °F 72% 30.01 in 10.0 mi South 20.7 mph 33.4 mph N/A   Overcast
3:15 AM 57.2 °F - 48.2 °F 72% 30.00 in 10.0 mi South 19.6 mph 26.5 mph N/A   Overcast
3:35 AM 57.2 °F - 50.0 °F 77% 29.99 in 10.0 mi South 19.6 mph 27.6 mph N/A   Overcast
3:55 AM 57.2 °F - 50.0 °F 77% 29.98 in 10.0 mi South 20.7 mph 29.9 mph N/A   Overcast
4:15 AM 59.0 °F - 50.0 °F 72% 29.98 in 10.0 mi South 16.1 mph 24.2 mph N/A   Overcast
4:35 AM 59.0 °F - 50.0 °F 72% 29.96 in 10.0 mi South 18.4 mph 32.2 mph N/A   Overcast
4:55 AM 59.0 °F - 51.8 °F 77% 29.95 in 10.0 mi South 23.0 mph 29.9 mph N/A   Overcast
5:15 AM 60.8 °F - 51.8 °F 72% 29.94 in 10.0 mi South 21.9 mph 31.1 mph N/A   Overcast
5:35 AM 60.8 °F - 51.8 °F 72% 29.93 in 10.0 mi South 21.9 mph 31.1 mph N/A   Overcast
6:15 AM 60.8 °F - 51.8 °F 72% 29.93 in 10.0 mi South 16.1 mph 26.5 mph N/A   Overcast
6:35 AM 60.8 °F - 51.8 °F 72% 29.93 in 10.0 mi South 17.3 mph 29.9 mph N/A   Overcast
6:55 AM 60.8 °F - 53.6 °F 77% 29.93 in 10.0 mi South 19.6 mph 27.6 mph N/A   Overcast
7:15 AM 59.0 °F - 53.6 °F 82% 29.98 in 8.0 mi West 26.5 mph 35.7 mph N/A   Overcast
7:35 AM 51.8 °F - 44.6 °F 76% 29.99 in 7.0 mi West 11.5 mph 24.2 mph N/A   Mostly Cloudy
7:55 AM 50.0 °F - 44.6 °F 82% 30.01 in 10.0 mi SW 5.8 mph - 0.03 in   Overcast
8:35 AM 48.2 °F - 44.6 °F 87% 30.03 in 7.0 mi WSW 9.2 mph - 0.01 in   Overcast
8:55 AM 48.2 °F - 44.6 °F 87% 30.01 in 10.0 mi West 9.2 mph - 0.01 in   Overcast
9:15 AM 48.2 °F - 44.6 °F 87% 30.01 in 9.0 mi WSW 8.1 mph - N/A   Overcast
9:35 AM 48.2 °F - 44.6 °F 87% 30.04 in 9.0 mi WSW 6.9 mph - N/A   Overcast
9:55 AM 48.2 °F - 44.6 °F 87% 30.03 in 4.0 mi SW 6.9 mph - 0.01 in   Overcast
10:15 AM 48.2 °F - 44.6 °F 87% 30.04 in 5.0 mi SW 9.2 mph - N/A   Overcast
10:35 AM 46.4 °F 41.9 °F 42.8 °F 87% 30.03 in 7.0 mi WSW 9.2 mph - 0.01 in   Overcast
10:55 AM 46.4 °F 43.5 °F 42.8 °F 87% 30.02 in 10.0 mi West 5.8 mph - 0.02 in   Overcast
11:15 AM 46.4 °F 44.3 °F 42.8 °F 87% 30.02 in 10.0 mi WSW 4.6 mph - 0.01 in   Overcast
11:35 AM 46.4 °F 41.9 °F 41.0 °F 81% 30.03 in 4.0 mi WNW 9.2 mph - 0.02 in   Overcast
11:55 AM 44.6 °F 38.1 °F 39.2 °F 81% 30.04 in 6.0 mi WNW 13.8 mph 17.3 mph 0.05 in   Overcast
12:15 PM 42.8 °F 35.1 °F 35.6 °F 76% 30.07 in 8.0 mi West 16.1 mph 21.9 mph 0.01 in   Overcast
12:36 PM 42.8 °F 35.8 °F 35.6 °F 76% 30.06 in 8.0 mi West 13.8 mph 20.7 mph N/A   Overcast
12:55 PM 42.8 °F 38.0 °F 35.6 °F 76% 30.06 in 9.0 mi West 8.1 mph - 0.02 in   Overcast
1:15 PM 41.0 °F 37.1 °F 35.6 °F 81% 30.07 in 10.0 mi West 5.8 mph - N/A   Overcast
1:35 PM 41.0 °F 34.7 °F 35.6 °F 81% 30.07 in 10.0 mi WSW 10.4 mph 18.4 mph N/A   Overcast
2:15 PM 39.2 °F 32.0 °F 35.6 °F 87% 30.09 in 10.0 mi WSW 11.5 mph 16.1 mph N/A   Overcast
2:35 PM 39.2 °F 33.6 °F 33.8 °F 81% 30.10 in 10.0 mi WSW 8.1 mph - N/A   Overcast
2:55 PM 39.2 °F 34.2 °F 33.8 °F 81% 30.10 in 10.0 mi WSW 6.9 mph - N/A   Mostly Cloudy
3:15 PM 39.2 °F 31.6 °F 33.8 °F 81% 30.11 in 10.0 mi WSW 12.7 mph - N/A   Overcast
3:35 PM 39.2 °F 33.0 °F 33.8 °F 81% 30.13 in 10.0 mi SW 9.2 mph - N/A   Mostly Cloudy
3:55 PM 39.2 °F 33.6 °F 33.8 °F 81% 30.13 in 10.0 mi WSW 8.1 mph - N/A   Mostly Cloudy
4:15 PM 37.4 °F 32.8 °F 32.0 °F 81% 30.14 in 10.0 mi SW 5.8 mph - N/A   Mostly Cloudy
4:35 PM 37.4 °F 33.8 °F 30.2 °F 75% 30.15 in 10.0 mi WSW 4.6 mph - N/A   Clear
4:55 PM 37.4 °F 33.8 °F 30.2 °F 75% 30.16 in 10.0 mi West 4.6 mph - N/A   Clear
5:15 PM 37.4 °F 32.8 °F 30.2 °F 75% 30.16 in 10.0 mi WSW 5.8 mph - N/A   Clear
5:35 PM 37.4 °F 32.8 °F 30.2 °F 75% 30.18 in 10.0 mi SSW 5.8 mph - N/A   Clear
5:55 PM 35.6 °F 30.7 °F 30.2 °F 81% 30.18 in 10.0 mi SW 5.8 mph - N/A   Partly Cloudy
6:15 PM 35.6 °F 30.7 °F 30.2 °F 81% 30.19 in 10.0 mi SW 5.8 mph - N/A   Partly Cloudy
6:35 PM 35.6 °F 29.9 °F 30.2 °F 81% 30.20 in 10.0 mi SW 6.9 mph - N/A   Clear
6:55 PM 35.6 °F 30.7 °F 30.2 °F 81% 30.21 in 10.0 mi SW 5.8 mph - N/A   Partly Cloudy
7:15 PM 35.6 °F 31.7 °F 28.4 °F 75% 30.22 in 10.0 mi West 4.6 mph - N/A   Clear
7:35 PM 33.8 °F 29.6 °F 28.4 °F 81% 30.23 in 10.0 mi West 4.6 mph - N/A   Clear
7:55 PM 33.8 °F 28.6 °F 26.6 °F 75% 30.23 in 10.0 mi West 5.8 mph - N/A   Clear
8:15 PM 33.8 °F 26.4 °F 26.6 °F 75% 30.25 in 10.0 mi West 9.2 mph - N/A   Clear
8:35 PM 33.8 °F 26.4 °F 26.6 °F 75% 30.26 in 10.0 mi West 9.2 mph - N/A   Scattered Clouds
8:55 PM 33.8 °F 27.0 °F 26.6 °F 75% 30.27 in 10.0 mi West 8.1 mph - N/A   Partly Cloudy
9:15 PM 33.8 °F 27.0 °F 26.6 °F 75% 30.28 in 10.0 mi West 8.1 mph - N/A   Partly Cloudy
9:35 PM 33.8 °F 28.6 °F 26.6 °F 75% 30.28 in 10.0 mi WNW 5.8 mph - N/A   Clear
9:55 PM 30.2 °F 25.4 °F 26.6 °F 86% 30.29 in 10.0 mi ENE 4.6 mph - N/A   Clear
10:15 PM 30.2 °F - 26.6 °F 86% 30.30 in 10.0 mi Calm Calm - N/A   Clear
10:35 PM 28.4 °F - 24.8 °F 86% - 10.0 mi Calm Calm - N/A   Clear
10:55 PM 30.2 °F - 26.6 °F 86% - - Calm Calm - N/A   Unknown
11:15 PM 30.2 °F - 24.8 °F 80% 30.32 in - Calm Calm - N/A   Clear
11:35 PM 30.2 °F 24.3 °F 26.6 °F 86% 30.32 in 10.0 mi WNW 5.8 mph - N/A   Clear
11:55 PM 30.2 °F 26.7 °F 26.6 °F 86% - 10.0 mi NW 3.5 mph - N/A   Clear